| time (UTC) | temp F | wind direction | speed knots | gust knots | rain 1hr in | rain 24hr in | rain mn in | humidity % | barometer mb |
| 20260508033055 | 49 | 0 | 0.0 | 0.9 | 0.00 | 0.00 | 0.00 | 80 | 1021.5 |
| 20260508031557 | 49 | 0 | 0.0 | 0.9 | 0.00 | 0.00 | 0.00 | 79 | 1021.4 |
| 20260508030059 | 50 | 0 | 0.0 | 0.9 | 0.00 | 0.00 | 0.00 | 78 | 1021.4 |
| 20260508024615 | 50 | 55 | 0.0 | 1.7 | 0.00 | 0.00 | 0.00 | 78 | 1021.3 |
| 20260508023053 | 50 | 215 | 0.0 | 0.9 | 0.00 | 0.00 | 0.00 | 78 | 1021.3 |
| 20260508021558 | 50 | 0 | 0.0 | 0.9 | 0.00 | 0.00 | 0.00 | 77 | 1021.3 |
| 20260508020053 | 50 | 0 | 0.0 | 0.0 | 0.00 | 0.00 | 0.00 | 76 | 1021.3 |
| 20260508014554 | 50 | 0 | 0.0 | 1.7 | 0.00 | 0.00 | 0.00 | 76 | 1021.5 |
| 20260508013051 | 50 | 0 | 0.0 | 0.9 | 0.00 | 0.00 | 0.00 | 75 | 1021.4 |
| 20260508011554 | 50 | 0 | 0.0 | 2.6 | 0.00 | 0.00 | 0.00 | 75 | 1021.5 |
| 20260508010054 | 50 | 0 | 0.0 | 1.7 | 0.00 | 0.00 | 0.00 | 74 | 1021.5 |
| 20260508004555 | 50 | 0 | 0.0 | 3.5 | 0.00 | 0.00 | 0.00 | 74 | 1021.6 |
| 20260508003050 | 51 | 0 | 0.0 | 3.5 | 0.00 | 0.00 | 0.00 | 74 | 1021.5 |
| 20260508001549 | 51 | 0 | 0.0 | 0.9 | 0.00 | 0.00 | 0.00 | 74 | 1021.7 |
| 20260508000052 | 51 | 232 | 0.0 | 2.6 | 0.00 | 0.00 | 0.00 | 73 | 1021.6 |
| 20260507234557 | 51 | 0 | 0.0 | 1.7 | 0.00 | 0.00 | 0.00 | 72 | 1021.7 |
| 20260507233046 | 52 | 0 | 0.0 | 2.6 | 0.00 | 0.00 | 0.00 | 71 | 1021.7 |
| 20260507231552 | 52 | 0 | 0.0 | 2.6 | 0.00 | 0.00 | 0.00 | 72 | 1021.8 |
| 20260507230107 | 53 | 0 | 0.0 | 3.5 | 0.00 | 0.00 | 0.00 | 73 | 1021.8 |
| 20260507224553 | 53 | 0 | 0.0 | 2.6 | 0.00 | 0.00 | 0.00 | 73 | 1021.8 |
| 20260507223049 | 52 | 311 | 0.0 | 0.9 | 0.00 | 0.00 | 0.00 | 75 | 1021.8 |
| 20260507221551 | 52 | 0 | 0.0 | 0.0 | 0.00 | 0.00 | 0.00 | 78 | 1021.7 |
| 20260507220054 | 52 | 0 | 0.0 | 0.0 | 0.00 | 0.00 | 0.00 | 80 | 1021.9 |
| 20260507214551 | 52 | 0 | 0.0 | 0.0 | 0.00 | 0.00 | 0.00 | 80 | 1021.8 |
| 20260507213048 | 52 | 0 | 0.0 | 0.0 | 0.00 | 0.00 | 0.00 | 79 | 1021.7 |
| 20260507211551 | 53 | 0 | 0.0 | 0.0 | 0.00 | 0.00 | 0.00 | 79 | 1021.6 |
| 20260507210105 | 53 | 0 | 0.0 | 0.0 | 0.00 | 0.00 | 0.00 | 79 | 1021.6 |
| 20260507204554 | 53 | 0 | 0.0 | 0.0 | 0.00 | 0.00 | 0.00 | 78 | 1021.5 |
| 20260507203114 | 53 | 0 | 0.0 | 0.0 | 0.00 | 0.00 | 0.00 | 77 | 1021.4 |
| 20260507201555 | 53 | 0 | 0.0 | 0.0 | 0.00 | 0.00 | 0.00 | 78 | 1021.3 |
| 20260507200057 | 53 | 0 | 0.0 | 0.0 | 0.00 | 0.00 | 0.00 | 78 | 1021.1 |
| 20260507194601 | 53 | 0 | 0.0 | 0.0 | 0.00 | 0.00 | 0.00 | 79 | 1020.9 |
| 20260507193052 | 53 | 0 | 0.0 | 0.0 | 0.00 | 0.00 | 0.00 | 78 | 1020.9 |
| 20260507191550 | 53 | 0 | 0.0 | 0.9 | 0.00 | 0.00 | 0.00 | 78 | 1021.0 |
| 20260507190055 | 53 | 0 | 0.0 | 0.9 | 0.00 | 0.00 | 0.00 | 79 | 1020.9 |
| 20260507184551 | 53 | 0 | 0.0 | 0.9 | 0.00 | 0.00 | 0.00 | 77 | 1020.8 |
| 20260507183056 | 53 | 0 | 0.0 | 0.9 | 0.00 | 0.00 | 0.00 | 77 | 1020.9 |
| 20260507181549 | 54 | 0 | 0.0 | 2.6 | 0.00 | 0.00 | 0.00 | 76 | 1020.8 |
| 20260507180053 | 55 | 271 | 0.0 | 1.7 | 0.00 | 0.00 | 0.00 | 76 | 1020.8 |
| 20260507174551 | 55 | 0 | 0.0 | 0.9 | 0.00 | 0.00 | 0.00 | 74 | 1020.8 |
| 20260507173124 | 55 | 0 | 0.0 | 0.0 | 0.00 | 0.00 | 0.00 | 74 | 1020.7 |
| 20260507171558 | 55 | 169 | 0.0 | 1.7 | 0.00 | 0.00 | 0.00 | 72 | 1020.8 |
| 20260507170050 | 56 | 248 | 0.0 | 2.6 | 0.00 | 0.00 | 0.00 | 72 | 1020.9 |
| 20260507164551 | 56 | 151 | 0.9 | 2.6 | 0.00 | 0.00 | 0.00 | 67 | 1020.9 |
| 20260507163047 | 57 | 265 | 0.0 | 1.7 | 0.00 | 0.00 | 0.00 | 65 | 1020.8 |
| 20260507161554 | 57 | 189 | 0.9 | 4.3 | 0.00 | 0.00 | 0.00 | 62 | 1020.8 |
| 20260507160101 | 58 | 153 | 0.9 | 2.6 | 0.00 | 0.00 | 0.00 | 59 | 1020.7 |
| 20260507154551 | 58 | 257 | 0.0 | 1.7 | 0.00 | 0.00 | 0.00 | 58 | 1020.7 |
| 20260507153050 | 58 | 0 | 0.0 | 0.9 | 0.00 | 0.00 | 0.00 | 57 | 1020.8 |
| 20260507151552 | 58 | 171 | 0.0 | 0.9 | 0.00 | 0.00 | 0.00 | 56 | 1020.8 |
| 20260507150054 | 59 | 0 | 0.0 | 1.7 | 0.00 | 0.00 | 0.00 | 55 | 1020.9 |
| 20260507144608 | 59 | 196 | 0.0 | 1.7 | 0.00 | 0.00 | 0.00 | 56 | 1020.9 |
| 20260507143101 | 59 | 254 | 0.0 | 2.6 | 0.00 | 0.00 | 0.00 | 56 | 1021.0 |
| 20260507141558 | 59 | 0 | 0.0 | 2.6 | 0.00 | 0.00 | 0.00 | 55 | 1021.1 |
| 20260507140049 | 60 | 146 | 0.9 | 1.7 | 0.00 | 0.00 | 0.00 | 55 | 1021.2 |
| 20260507134554 | 61 | 134 | 0.0 | 3.5 | 0.00 | 0.00 | 0.00 | 50 | 1021.2 |
| 20260507133125 | 61 | 196 | 0.9 | 3.5 | 0.00 | 0.00 | 0.00 | 50 | 1021.1 |
| 20260507131552 | 63 | 51 | 0.9 | 4.3 | 0.00 | 0.00 | 0.00 | 49 | 1021.1 |
| 20260507124556 | 62 | 108 | 0.0 | 4.3 | 0.00 | 0.00 | 0.00 | 46 | 1021.3 |
| 20260507123053 | 62 | 170 | 0.9 | 4.3 | 0.00 | 0.00 | 0.00 | 50 | 1021.3 |
| 20260507121553 | 62 | 306 | 0.9 | 3.5 | 0.00 | 0.00 | 0.00 | 48 | 1021.3 |
| 20260507120052 | 62 | 320 | 0.9 | 3.5 | 0.00 | 0.00 | 0.00 | 51 | 1021.5 |
| 20260507114600 | 63 | 218 | 0.9 | 4.3 | 0.00 | 0.00 | 0.00 | 50 | 1021.6 |
| 20260507113051 | 62 | 0 | 0.0 | 5.2 | 0.00 | 0.00 | 0.00 | 51 | 1021.7 |
| 20260507111555 | 61 | 19 | 0.0 | 4.3 | 0.00 | 0.00 | 0.00 | 57 | 1021.7 |
| 20260507110054 | 60 | 228 | 0.9 | 3.5 | 0.00 | 0.00 | 0.00 | 61 | 1021.9 |
| 20260507104552 | 58 | 0 | 0.0 | 3.5 | 0.00 | 0.00 | 0.00 | 65 | 1022.0 |
| 20260507103056 | 56 | 0 | 0.9 | 3.5 | 0.00 | 0.00 | 0.00 | 71 | 1021.9 |
| 20260507101550 | 55 | 51 | 0.0 | 3.5 | 0.00 | 0.00 | 0.00 | 70 | 1022.1 |
| 20260507100057 | 54 | 0 | 0.0 | 2.6 | 0.00 | 0.00 | 0.00 | 73 | 1022.1 |
| 20260507094559 | 53 | 171 | 0.0 | 1.7 | 0.00 | 0.00 | 0.00 | 75 | 1022.3 |
| 20260507093052 | 53 | 0 | 0.0 | 1.7 | 0.00 | 0.00 | 0.00 | 75 | 1022.4 |
| 20260507091554 | 52 | 13 | 0.0 | 2.6 | 0.00 | 0.00 | 0.00 | 75 | 1022.2 |
| 20260507090054 | 51 | 26 | 0.0 | 0.9 | 0.00 | 0.00 | 0.00 | 76 | 1022.3 |
| 20260507084557 | 50 | 0 | 0.0 | 1.7 | 0.00 | 0.00 | 0.00 | 79 | 1022.3 |
| 20260507083053 | 49 | 0 | 0.0 | 1.7 | 0.00 | 0.00 | 0.00 | 80 | 1022.3 |
| 20260507081551 | 48 | 0 | 0.0 | 1.7 | 0.00 | 0.00 | 0.00 | 81 | 1022.2 |
| 20260507080056 | 48 | 0 | 0.0 | 1.7 | 0.00 | 0.00 | 0.00 | 82 | 1022.1 |
| 20260507074557 | 48 | 0 | 0.0 | 0.9 | 0.00 | 0.00 | 0.00 | 83 | 1022.0 |
| 20260507073102 | 47 | 0 | 0.0 | 0.9 | 0.00 | 0.00 | 0.00 | 84 | 1022.0 |
| 20260507071553 | 47 | 0 | 0.0 | 1.7 | 0.00 | 0.00 | 0.00 | 84 | 1022.0 |
| 20260507070057 | 46 | 0 | 0.0 | 0.9 | 0.00 | 0.00 | 0.00 | 85 | 1022.0 |
| 20260507064557 | 46 | 0 | 0.0 | 0.0 | 0.00 | 0.00 | 0.00 | 86 | 1021.9 |
| 20260507063100 | 45 | 0 | 0.0 | 0.9 | 0.00 | 0.00 | 0.00 | 86 | 1021.8 |
| 20260507061549 | 45 | 0 | 0.0 | 0.9 | 0.00 | 0.00 | 0.00 | 87 | 1021.9 |
| 20260507060056 | 45 | 0 | 0.0 | 0.0 | 0.00 | 0.00 | 0.00 | 87 | 1021.7 |
| 20260507054551 | 44 | 0 | 0.0 | 0.9 | 0.00 | 0.00 | 0.00 | 87 | 1021.8 |
| 20260507053115 | 44 | 0 | 0.0 | 0.9 | 0.00 | 0.00 | 0.00 | 88 | 1021.6 |
| 20260507051555 | 44 | 0 | 0.0 | 0.0 | 0.00 | 0.00 | 0.00 | 88 | 1021.5 |
| 20260507050051 | 44 | 0 | 0.0 | 1.7 | 0.00 | 0.00 | 0.00 | 88 | 1021.5 |
| 20260507044603 | 43 | 248 | 0.0 | 0.9 | 0.00 | 0.00 | 0.00 | 89 | 1021.3 |
| 20260507043050 | 43 | 127 | 0.0 | 1.7 | 0.00 | 0.00 | 0.00 | 88 | 1021.3 |
| 20260507041552 | 43 | 0 | 0.0 | 0.9 | 0.00 | 0.00 | 0.00 | 88 | 1021.2 |
| 20260507040050 | 43 | 0 | 0.0 | 0.0 | 0.00 | 0.00 | 0.00 | 88 | 1021.3 |
| 20260507034554 | 43 | 0 | 0.0 | 0.9 | 0.00 | 0.00 | 0.00 | 88 | 1021.3 |